Vorticity
6 6 6 6 6 6 6 6 6 6 6 6 6 6 6 6 6 6 6 6 6 5 6 5 5 5 6 5 5 6 5 5 5 5 5 5 5 5 5 5 5 5 5 5 5 5 5 5 6 6 6 6 6 6 6 6 6 6 6 6 6 6 6 6 6 6 5 5 5 5 5 5 5 5 6 6 6 6 6 5 5 4 3 2 2 3 4 6 7 8 8 8 8 8 8 7 7 7 7 7 7 7 6
6 6 6 6 6 6 6 5 5 5 5 5 5 5 5 5 5 5 5 5 5 5 5 5 5 5 5 5 5 5 5 5 5 5 5 5 5 5 4 5 5 5 5 5 5 5 5 5 5 6 6 6 6 6 6 6 7 7 6 6 6 6 6 7 7 6 6 6 6 6 6 6 5 5 5 5 6 6 6 6 6 5 5 4 3 2 2 3 4 6 8 9 9 9 8 8 8 8 8 8 8 8 7
6 6 6 6 5 5 5 5 5 5 5 5 5 5 5 5 5 5 5 5 5 5 5 5 5 5 5 5 5 5 5 5 5 5 5 5 5 5 4 4 4 4 5 5 5 5 5 5 5 5 6 6 6 6 6 6 6 6 6 6 6 6 6 6 7 7 7 7 6 6 6 6 6 6 6 6 6 6 6 6 6 6 6 6 5 4 3 2 2 3 4 7 9 10 11 10 9 9 8 8 8 8 8
6 6 6 6 5 5 5 5 5 5 5 5 5 5 5 5 5 5 5 5 5 5 5 5 5 5 5 5 5 5 5 5 5 5 5 5 5 5 4 4 4 4 4 4 5 5 5 5 5 5 5 5 6 6 5 6 6 6 6 6 6 6 6 6 6 7 7 7 7 7 7 7 7 7 7 7 7 6 6 6 6 6 6 6 6 6 5 4 3 3 2 3 5 7 10 11 11 11 10 9 9 9 9
6 6 6 5 5 5 5 5 5 5 5 5 5 5 5 5 5 5 5 5 5 5 5 5 5 5 5 5 5 5 5 5 5 5 5 5 5 5 5 4 4 4 4 4 4 5 5 5 5 5 5 5 5 5 5 5 5 5 5 6 6 6 6 6 6 6 6 6 6 7 7 7 7 7 7 7 7 7 7 7 7 6 6 6 6 6 6 6 6 5 4 3 3 3 5 7 10 11 12 11 11 10 10
6 6 6 6 5 5 5 5 5 5 5 5 5 5 5 5 5 4 4 4 4 4 4 5 5 5 5 5 5 5 5 5 5 5 5 5 5 5 5 5 4 4 4 4 4 4 5 5 5 5 5 5 5 5 5 5 5 5 5 5 5 5 5 6 6 6 6 6 6 6 6 7 7 7 7 7 7 7 7 7 7 7 6 6 6 6 6 7 6 6 6 6 5 4 4 4 6 8 10 12 12 12 11
6 6 6 6 6 6 5 5 5 5 5 5 5 5 5 5 5 5 5 4 4 4 4 5 5 5 5 5 5 5 5 5 5 5 5 5 5 5 5 5 5 5 4 4 4 4 4 5 5 5 5 5 5 5 5 5 5 5 5 5 5 5 5 5 5 5 6 6 6 6 6 6 6 6 6 6 7 7 7 7 7 7 7 7 6 6 6 6 6 6 6 6 6 6 5 5 5 6 7 9 11 12 12
6 6 6 6 6 6 6 6 6 5 5 5 5 5 5 5 5 5 5 5 5 5 5 5 5 5 5 5 5 5 5 5 5 5 5 5 5 5 5 5 5 5 5 5 5 5 4 5 5 5 5 5 5 5 5 5 5 5 5 5 5 5 4 4 5 5 5 5 6 6 6 7 7 7 6 6 6 6 6 7 7 7 7 7 7 6 6 6 6 6 6 6 6 6 5 5 4 4 5 7 9 11 12
6 6 6 6 6 6 6 6 6 6 6 6 6 6 6 6 6 5 5 5 5 5 5 5 5 5 5 5 5 5 5 5 5 5 5 5 5 5 5 5 5 5 5 5 5 5 5 5 5 5 5 5 5 5 5 5 5 5 5 5 5 5 5 4 4 4 4 5 5 5 6 6 6 7 7 7 7 7 7 7 7 7 7 7 6 6 6 6 6 6 6 6 6 6 6 5 5 4 3 4 5 8 11
6 6 6 6 6 6 6 6 6 6 6 6 6 6 6 6 6 6 6 6 6 6 6 6 6 6 6 6 5 5 5 5 5 5 5 5 5 5 5 5 5 5 6 6 5 5 5 5 5 5 5 5 5 5 5 5 5 5 5 5 5 5 5 5 4 4 4 4 4 4 4 5 5 5 6 6 7 7 7 7 7 7 7 7 6 6 6 6 6 6 6 6 6 6 6 6 6 5 4 3 3 3 5
6 6 7 6 6 6 6 6 6 6 6 6 6 6 6 6 6 6 6 6 6 6 6 6 6 6 6 6 6 6 5 5 5 5 5 5 5 5 5 5 5 5 6 6 6 6 5 5 5 5 5 5 5 5 5 5 5 5 5 5 5 5 5 5 5 5 5 5 4 4 4 4 4 4 4 4 5 5 6 6 7 7 7 7 7 7 6 6 6 5 5 5 6 6 6 6 6 6 6 5 4 3 2
6 6 7 6 6 6 6 6 6 6 6 6 6 6 6 6 6 6 6 6 6 6 6 6 6 6 6 6 6 6 6 5 5 5 5 5 5 5 5 5 5 5 5 5 5 5 5 5 5 5 5 5 5 5 5 5 5 5 5 5 5 5 5 5 5 5 5 5 5 5 5 5 4 4 3 3 3 3 3 4 4 5 6 6 6 7 7 6 6 6 5 5 5 5 5 6 6 6 6 6 6 6 4
6 6 6 6 6 6 6 6 6 6 6 6 6 6 6 6 6 6 6 6 6 6 6 7 7 7 7 6 6 6 6 6 6 5 5 5 5 5 5 5 5 5 5 5 5 5 5 5 5 5 5 5 5 5 5 5 5 5 6 5 5 5 5 5 5 5 6 6 6 6 6 6 6 5 5 4 4 3 2 2 2 3 3 3 4 5 6 6 6 6 6 5 5 5 5 5 6 6 6 7 7 7 7
6 6 6 6 6 6 6 6 6 6 6 6 6 6 6 6 6 6 6 6 6 6 6 7 7 7 7 7 7 6 6 6 6 6 6 6 6 6 6 5 5 5 5 5 5 5 5 5 5 5 5 5 5 5 6 5 5 5 6 5 5 5 5 5 5 5 6 6 6 6 6 6 6 6 6 6 5 5 4 4 4 3 2 2 1 2 2 3 4 5 6 6 6 5 5 5 6 6 6 7 7 7 7
6 6 6 6 6 6 6 6 6 6 6 6 6 6 6 6 6 6 6 6 6 6 6 6 6 7 7 7 7 7 7 7 6 6 6 6 6 6 6 6 6 6 5 5 5 5 5 5 5 5 5 5 5 5 6 6 5 6 6 6 5 5 5 5 5 5 6 6 6 6 7 6 7 7 7 6 6 6 6 6 6 5 5 4 3 2 1 1 1 2 4 5 6 6 6 6 6 6 6 6 7 7 7
5 5 5 5 5 6 6 6 6 6 6 6 6 6 6 6 6 6 6 6 6 6 6 6 6 6 6 6 6 6 7 7 7 7 7 7 7 7 7 6 6 6 6 6 5 5 5 5 5 5 6 6 6 6 6 6 6 6 6 6 6 5 5 5 5 6 6 6 6 6 6 6 6 6 6 6 6 6 6 6 6 6 6 6 5 5 4 2 1 0 1 3 4 6 6 6 6 6 6 6 6 7 7
5 5 5 5 5 5 5 5 5 5 4 4 4 4 4 4 4 5 5 5 5 5 5 5 5 5 5 5 6 6 6 6 6 7 7 7 7 7 7 7 7 6 6 6 6 5 5 5 5 6 6 6 6 6 6 6 6 6 6 6 6 6 6 5 6 6 6 6 6 6 6 6 6 6 6 6 6 6 7 7 7 7 7 6 6 6 6 5 4 2 1 1 2 4 5 6 7 7 7 6 7 7 7
4 4 4 4 4 4 4 4 4 3 3 3 3 3 3 3 3 4 4 4 4 4 4 4 5 5 5 5 5 5 5 6 6 6 6 6 7 7 7 7 7 7 6 6 6 6 6 6 5 6 6 6 6 6 6 6 6 6 6 6 6 6 6 5 6 6 6 6 6 6 6 6 6 6 6 6 6 6 7 7 7 7 7 6 6 6 6 6 5 4 3 3 2 2 3 5 6 7 8 8 8 8 8
3 3 3 3 3 2 2 2 2 2 2 2 2 2 3 3 3 3 3 4 4 4 4 4 4 4 4 5 5 5 5 5 5 6 6 6 6 6 7 7 7 7 7 6 6 6 6 6 6 6 6 6 6 6 6 6 6 6 6 6 6 6 6 6 6 6 6 6 6 6 6 6 6 6 6 6 6 7 7 7 7 7 7 7 6 6 6 6 5 5 5 4 4 3 3 4 5 6 8 9 9 9 9
2 2 2 2 2 2 2 2 2 2 2 2 2 2 2 3 3 3 3 4 4 4 4 4 4 4 5 5 5 5 5 5 6 6 6 6 6 6 6 6 6 6 6 6 6 6 6 6 6 6 6 6 6 7 6 6 6 6 6 6 6 6 6 6 6 6 6 6 6 6 6 6 6 6 7 7 7 7 7 7 7 7 7 7 6 6 6 6 6 5 5 5 5 5 5 5 5 6 7 8 9 10 11
2 2 2 2 2 2 2 2 2 2 2 2 2 3 3 3 3 4 4 4 4 4 4 4 5 5 5 5 5 6 6 6 6 6 6 6 6 6 6 6 6 6 6 6 6 6 6 6 6 6 6 6 7 7 7 6 6 6 6 6 6 6 6 6 6 6 6 6 6 6 6 6 6 6 7 7 7 7 7 7 7 7 7 7 7 6 6 6 6 6 6 6 6 6 7 7 7 7 7 7 8 9 10
1 2 2 2 2 2 2 2 2 2 3 3 3 3 3 3 4 4 4 4 4 4 4 5 5 5 5 5 6 6 6 6 7 7 7 7 7 7 7 7 6 6 7 6 6 6 6 6 6 6 6 6 7 7 7 7 6 6 6 6 6 6 6 6 6 6 6 6 6 6 6 6 6 7 7 7 7 8 8 8 8 8 7 7 7 7 7 6 6 6 6 6 7 7 8 8 8 8 8 8 8 8 9
2 2 2 2 2 2 2 2 2 2 3 3 3 3 4 4 4 4 4 4 4 4 4 5 5 5 5 5 6 6 6 6 7 7 7 7 7 7 7 7 7 7 7 6 6 6 6 6 6 6 6 6 7 7 7 7 6 6 6 6 6 6 6 6 6 6 6 6 6 6 6 6 7 7 7 7 7 8 8 8 8 8 8 8 7 7 7 7 7 7 7 7 8 8 9 9 10 10 10 10 10 9 9
2 2 2 2 2 2 2 2 3 3 3 3 3 3 4 4 4 4 4 4 4 4 4 4 5 5 5 5 5 6 6 6 7 7 7 7 7 7 7 7 7 7 7 7 6 6 6 6 6 6 6 6 6 6 7 7 6 6 6 6 6 6 6 6 6 6 6 6 6 6 6 7 7 7 7 7 7 8 8 8 8 8 8 8 8 8 8 8 8 8 8 8 9 9 10 10 11 11 12 12 11 11 11
2 2 2 2 3 3 3 3 3 3 3 3 3 3 4 4 4 4 4 4 4 4 4 4 4 4 4 5 5 5 6 6 6 7 7 7 7 7 7 7 7 7 7 7 6 6 6 6 6 6 6 6 6 6 6 6 6 6 6 6 6 6 6 6 6 6 6 6 6 6 7 7 7 7 7 7 8 8 8 8 8 8 8 9 9 9 9 9 9 9 9 9 10 10 11 12 12 12 12 12 12 12 12
2 2 3 3 3 3 3 3 3 3 3 3 3 3 3 4 4 4 4 4 4 4 4 4 4 4 4 4 5 5 5 6 6 6 7 7 7 7 7 7 7 7 7 7 6 6 6 6 6 6 6 6 6 6 6 6 6 6 6 6 6 6 6 6 6 6 6 6 6 7 7 7 7 7 7 7 8 8 8 8 8 8 9 9 9 9 10 9 9 10 10 10 11 11 12 13 13 13 13 13 13 13 12
3 3 3 3 3 3 3 3 3 3 3 3 3 3 3 3 3 3 3 3 3 3 3 3 4 4 4 4 4 4 5 5 6 6 6 7 7 7 7 7 7 7 7 7 6 6 6 6 6 6 6 6 6 6 6 6 6 6 5 5 5 5 6 6 6 6 6 6 6 6 7 7 7 7 7 8 8 8 8 8 8 9 9 9 9 10 10 10 10 10 10 11 11 12 13 13 14 14 14 14 13 13 12
3 3 3 3 3 3 3 3 4 4 4 4 4 4 4 3 3 3 3 3 3 3 3 3 3 3 3 4 4 4 4 5 5 6 6 6 7 7 7 7 7 7 7 6 6 6 6 6 6 6 6 6 6 6 6 5 5 5 5 5 5 5 5 6 6 6 6 6 6 6 7 7 7 7 7 8 8 8 8 8 9 9 9 9 9 10 10 10 10 10 11 11 12 13 14 14 14 14 14 14 13 13 13
4 4 4 4 4 4 4 4 4 4 4 4 4 4 4 4 3 3 3 3 3 3 3 3 3 3 3 3 3 4 4 4 5 5 6 6 6 7 7 7 7 7 7 7 6 6 6 6 6 6 6 6 6 6 6 5 5 5 5 5 5 5 5 6 6 6 6 6 7 7 7 7 7 8 8 8 8 8 8 8 9 9 9 9 9 10 10 10 10 11 11 12 13 14 14 14 14 14 14 14 14 14 13
4 4 4 4 4 4 4 4 4 4 4 4 4 4 4 4 3 3 3 3 3 3 3 3 3 3 3 3 3 4 4 4 4 5 5 6 6 7 7 7 7 7 7 7 7 6 6 7 7 7 7 6 6 6 6 6 5 5 5 5 5 5 5 6 6 6 6 7 7 7 7 8 8 8 8 8 8 8 8 8 9 9 9 9 10 10 10 10 10 11 12 12 13 14 14 14 14 14 13 13 13 14 14
4 4 4 4 4 4 4 4 4 4 4 4 4 4 4 4 3 3 3 2 2 3 2 3 3 3 3 2 3 4 4 4 4 4 5 6 6 7 7 7 7 7 7 7 7 6 7 6 6 7 7 6 6 6 6 6 5 5 5 5 5 5 5 6 6 6 7 7 7 8 8 8 8 8 8 8 9 9 9 9 9 9 9 9 10 10 10 10 11 12 12 13 13 13 13 13 13 13 13 13 13 13 14
4 3 4 3 4 4 4 4 4 4 4 4 4 4 4 3 3 3 3 3 2 2 3 2 2 2 2 3 3 4 3 3 4 4 5 5 6 7 7 7 7 7 7 6 6 7 7 6 7 7 7 7 7 7 6 6 5 5 5 5 5 5 6 6 6 7 7 8 8 8 8 8 8 9 9 9 9 9 9 9 9 9 9 9 10 10 10 11 11 12 12 13 13 13 13 13 13 12 12 13 13 14 14
3 3 3 4 4 4 4 4 4 4 4 4 4 4 4 4 4 3 3 3 3 3 3 3 2 2 2 2 3 3 3 3 3 4 4 5 6 7 7 7 8 8 7 7 7 7 7 7 7 7 7 7 7 7 7 6 6 6 5 5 5 5 6 6 7 7 8 8 8 8 8 9 9 9 9 9 9 9 9 9 9 9 9 10 10 10 10 11 12 12 13 13 13 13 13 13 13 13 13 13 13 14 14
3 3 3 4 4 4 4 4 4 4 4 4 4 4 4 4 4 4 3 3 3 3 3 3 3 3 3 2 2 3 3 3 3 3 4 5 6 7 7 7 8 8 7 7 7 7 6 7 7 7 7 7 7 7 7 7 6 6 6 6 6 6 6 6 7 7 7 8 8 8 9 9 9 9 8 8 8 9 9 9 9 9 9 10 10 10 11 11 12 12 13 13 13 13 13 13 13 13 14 14 14 14 14
4 4 4 4 4 4 4 4 4 4 4 4 4 4 4 4 4 4 4 3 3 4 4 3 3 3 3 2 2 3 4 3 3 4 5 5 6 7 7 8 8 7 7 7 7 7 6 7 7 7 7 8 8 8 7 7 7 6 6 6 6 6 6 6 6 7 7 7 8 8 9 9 8 8 8 8 8 8 9 9 9 9 10 10 10 11 11 12 12 13 13 13 13 13 13 13 13 14 14 14 14 15 15
4 4 4 4 4 4 5 5 4 4 4 4 4 4 4 4 4 4 3 3 3 4 4 3 3 3 3 3 3 3 3 3 3 4 6 5 5 6 7 8 8 7 7 8 7 7 6 7 8 8 8 8 8 8 8 7 7 7 7 6 6 6 6 6 7 7 7 8 9 9 9 8 8 8 8 8 8 9 9 9 9 10 10 11 11 12 12 13 13 13 13 13 13 13 13 13 13 14 14 15 15 16 16
4 4 5 4 4 4 4 5 5 4 4 4 4 4 3 4 4 3 3 3 4 4 3 3 3 4 3 4 4 3 2 3 3 4 6 6 6 6 8 8 8 8 9 8 7 7 7 8 8 9 9 8 8 8 8 7 7 7 7 7 7 7 7 8 8 8 9 9 9 9 8 8 8 8 8 8 9 9 9 10 10 10 11 11 12 12 13 14 14 14 14 14 14 13 13 13 14 14 15 15 16 17 17
4 4 5 5 4 4 4 4 4 4 4 3 4 4 3 3 3 3 3 4 4 4 3 4 4 4 4 4 4 3 2 3 4 4 4 5 6 8 9 9 8 9 9 8 8 7 8 9 9 9 9 9 9 8 8 7 7 7 7 7 7 8 8 9 9 10 10 10 9 9 8 8 8 9 9 9 9 9 10 10 10 11 11 12 12 13 14 14 14 14 14 14 13 13 13 13 14 14 15 16 17 18 19
5 4 4 4 4 5 4 4 4 4 3 3 3 4 3 3 3 4 4 4 4 4 4 4 4 4 4 4 4 3 3 4 4 4 3 4 5 7 8 9 9 10 9 8 8 8 9 9 9 9 9 10 9 8 7 8 7 7 7 7 8 9 9 10 10 10 10 10 9 9 9 9 9 9 9 9 9 10 10 10 11 11 12 12 13 13 14 14 14 14 13 13 13 13 13 13 14 15 16 17 19 20 21
5 5 4 4 4 4 4 4 4 4 3 3 3 3 3 3 3 4 5 4 4 4 5 4 3 3 4 4 4 4 4 4 4 4 4 4 5 6 8 9 10 10 9 8 8 8 9 9 9 9 10 10 9 8 7 7 7 6 7 8 8 9 10 10 10 10 10 9 9 9 9 9 9 9 9 9 10 10 10 11 11 11 12 12 13 13 13 13 13 13 13 13 13 13 13 14 15 16 18 19 20 22 22
5 5 4 4 4 4 4 4 4 3 3 3 3 3 3 4 4 4 4 4 4 4 5 5 4 3 3 4 4 4 3 4 4 4 3 5 5 6 7 9 10 10 9 8 8 8 8 9 9 9 10 9 8 7 8 7 6 6 7 8 9 9 9 9 9 9 9 10 10 10 9 9 9 9 9 9 10 10 10 10 11 11 12 12 13 13 13 13 13 12 12 12 12 13 14 15 16 18 19 21 22 23 23
4 4 4 4 4 4 4 4 4 4 3 3 4 3 3 4 4 4 4 4 4 4 4 5 5 4 3 3 4 4 2 3 4 4 3 4 5 6 7 9 10 10 9 9 8 8 8 8 8 9 8 7 7 8 7 6 6 7 7 8 8 9 9 9 9 9 10 10 10 10 9 9 8 8 9 9 9 10 10 10 10 11 11 12 12 13 13 13 12 12 11 11 12 13 14 16 18 19 21 23 24 24 25
4 4 4 4 4 4 4 4 4 4 4 4 4 4 4 4 4 4 5 4 4 4 4 5 5 5 4 3 4 4 3 3 3 4 3 3 4 6 7 9 10 10 10 9 9 8 8 8 8 9 8 7 7 7 6 6 6 7 8 8 8 8 9 9 10 10 10 10 10 10 9 9 9 9 9 9 9 9 9 9 10 10 11 11 12 12 13 12 12 11 11 11 12 13 15 17 19 21 23 25 26 26 27
4 4 4 4 4 4 4 4 4 4 4 4 4 4 5 4 4 4 5 5 5 4 4 4 5 5 5 4 4 4 4 3 3 3 3 4 4 5 7 9 10 10 9 10 9 8 8 8 9 9 8 8 7 6 5 6 6 7 7 8 8 9 10 10 11 11 11 11 10 10 10 10 9 9 9 9 8 8 8 9 9 10 11 11 12 12 13 12 12 11 11 12 12 14 16 18 21 24 26 27 28 29 31
4 4 4 4 4 4 4 4 4 4 4 4 4 4 4 4 4 5 5 5 5 5 3 4 5 5 6 5 4 4 4 3 2 2 2 3 4 5 7 9 9 9 9 10 9 8 8 8 8 8 8 8 7 6 5 5 6 6 6 9 10 11 11 12 11 11 11 11 11 10 10 10 10 9 9 9 8 8 8 8 9 9 10 11 11 12 13 13 12 12 11 12 13 14 17 20 23 26 28 29 30 31 33
4 5 5 5 4 4 4 5 5 5 4 5 4 4 4 5 5 5 5 5 5 5 4 3 4 5 7 6 5 4 4 3 2 2 3 3 3 5 7 8 8 9 9 9 9 9 9 8 8 8 8 7 7 6 5 6 6 6 8 11 12 12 12 12 11 11 11 11 10 10 10 9 9 9 9 8 8 8 8 8 8 8 9 10 11 12 13 13 12 11 11 11 13 15 18 22 25 28 31 31 32 33 33
4 5 5 5 5 4 4 5 5 5 5 5 5 5 5 5 5 5 5 4 5 5 5 4 3 4 5 6 6 5 3 3 3 3 3 3 4 5 6 6 8 9 9 8 8 9 8 8 8 8 8 7 7 6 6 6 6 7 10 11 12 12 13 11 11 11 10 10 10 9 9 8 8 8 8 8 8 7 7 7 7 8 8 9 11 12 14 14 13 11 10 11 13 16 19 23 27 29 31 32 32 31 30
5 5 6 5 5 4 5 5 5 5 5 5 5 5 5 4 5 5 5 4 4 4 5 4 4 3 3 4 5 5 4 4 4 3 1 1 4 6 6 4 5 8 10 9 9 8 7 6 7 8 8 8 7 6 6 6 7 9 12 11 12 13 12 11 10 10 9 9 9 9 8 8 8 8 8 7 7 6 6 6 7 7 8 8 10 12 14 14 13 12 10 11 13 16 20 24 27 29 30 29 28 26 24
5 5 6 6 5 5 4 5 5 5 5 5 5 5 5 4 4 5 5 5 4 4 4 5 5 4 3 3 4 5 5 5 4 3 2 0 2 4 8 7 7 8 10 11 9 7 6 6 7 8 8 8 7 6 7 7 9 11 12 12 12 12 11 10 10 9 8 9 9 8 8 8 7 7 6 6 5 5 5 5 6 6 7 8 9 12 14 14 14 12 10 11 13 17 21 25 27 28 27 25 21 18 16
5 6 6 6 5 5 5 5 5 5 6 6 5 5 4 5 5 4 4 5 5 5 4 6 7 6 3 3 4 4 4 4 3 2 3 5 4 2 3 9 10 10 10 10 9 8 7 8 8 8 7 7 7 7 7 8 10 11 12 12 12 11 10 10 9 8 8 9 9 8 7 7 6 6 5 5 5 5 5 5 5 5 5 7 9 11 14 15 14 13 11 12 14 18 22 25 26 25 24 20 16 13 11
5 6 6 6 6 5 5 5 5 5 5 5 5 5 5 5 5 5 5 5 5 5 5 4 6 8 8 5 4 4 3 3 3 3 3 7 8 6 2 0 3 6 9 9 11 12 9 9 8 8 7 7 7 7 8 8 9 10 11 12 12 11 10 10 9 8 8 9 9 8 7 6 5 5 5 5 5 5 4 4 4 4 4 5 8 11 14 15 15 13 12 12 15 19 23 24 24 23 20 16 13 10 9
6 6 6 6 6 6 5 5 5 5 5 4 5 5 6 5 5 5 5 5 4 5 6 4 3 4 9 8 6 4 5 3 5 7 5 2 4 8 6 0 3 7 7 6 8 11 11 11 12 12 11 10 9 9 8 8 9 10 10 11 12 11 10 9 8 7 8 8 8 7 6 5 5 5 5 5 5 4 3 2 2 3 3 5 7 10 14 16 16 14 12 13 16 19 23 23 22 20 17 14 11 10 9
6 6 6 6 6 5 4 5 5 5 5 5 5 5 5 5 5 5 5 5 5 5 6 6 4 2 3 6 6 5 7 5 5 7 8 1 -1 1 8 11 12 10 6 2 2 7 18 15 15 16 17 13 10 8 6 6 8 9 10 12 12 12 10 9 8 7 7 8 8 7 7 6 6 5 5 5 5 4 2 2 2 2 3 4 7 10 14 16 16 15 13 13 16 19 23 22 20 17 13 11 10 9 9
6 6 6 6 6 5 5 5 5 5 6 6 6 5 4 5 5 5 4 5 5 5 5 6 6 4 1 5 6 6 4 6 5 5 8 7 2 -1 4 13 13 8 7 5 4 5 12 11 10 10 12 10 8 5 4 6 7 9 11 12 12 11 10 9 8 7 8 8 8 8 7 6 5 5 5 5 5 4 2 2 2 2 2 4 7 10 14 17 17 16 13 14 16 19 22 20 17 13 10 9 9 9 10
6 6 6 6 6 5 5 5 4 5 6 6 6 6 5 5 5 5 5 5 4 4 4 5 6 7 5 4 5 6 4 5 5 5 4 9 11 9 -0 1 3 7 9 15 17 13 6 6 5 5 7 6 5 5 6 7 8 9 12 12 12 11 11 9 8 8 8 8 8 7 6 5 4 4 5 5 5 5 4 3 2 3 3 4 7 10 14 17 17 16 14 14 16 18 20 18 15 11 9 8 9 11 13
6 6 6 6 6 6 5 4 5 5 6 6 6 6 6 6 5 5 5 4 4 5 5 5 6 8 9 5 3 3 4 3 5 7 4 5 11 14 9 3 3 4 5 11 14 13 9 4 3 6 9 7 6 6 6 7 8 9 11 12 12 12 11 9 8 8 7 7 6 6 5 4 4 4 5 6 6 6 4 3 3 3 3 5 7 11 15 17 18 17 15 14 16 17 19 16 13 10 8 9 11 13 16
5 6 6 6 6 5 4 5 5 5 6 7 7 6 6 5 5 5 5 5 5 6 6 5 5 6 10 9 5 1 1 2 4 7 9 5 5 8 15 16 13 8 5 4 4 5 9 6 7 8 6 7 7 7 4 5 7 9 10 12 13 13 12 10 9 8 7 6 5 5 4 4 4 4 5 7 7 6 5 4 4 3 4 5 8 11 14 17 18 17 15 14 15 16 16 14 12 9 8 9 12 15 18
6 6 6 6 6 5 5 5 5 5 6 7 7 6 5 5 5 6 5 5 5 5 5 6 6 6 7 9 7 4 3 3 2 3 8 7 6 8 12 13 13 13 13 10 7 4 1 6 10 10 2 3 6 7 5 5 7 9 11 13 14 13 12 11 10 8 7 6 5 4 4 4 4 4 5 7 7 7 5 5 4 4 4 6 8 11 14 16 17 17 16 14 14 14 14 12 10 9 8 9 11 14 18
5 6 6 6 6 6 5 5 5 6 6 7 6 6 5 6 6 6 5 5 4 4 4 6 7 7 4 5 6 6 5 4 2 -0 -2 6 11 12 9 8 9 11 12 10 10 8 4 6 8 8 6 6 5 5 6 6 6 7 9 12 13 14 13 13 11 9 7 5 4 3 4 3 3 4 6 7 8 7 6 6 6 5 5 6 8 11 14 16 17 17 16 14 13 13 12 10 9 7 7 8 9 12 17
5 5 6 6 6 6 6 5 5 6 7 7 7 6 6 6 6 5 5 5 5 5 5 6 6 6 6 5 6 6 3 2 2 3 0 3 8 12 11 10 10 10 8 7 7 8 10 10 8 6 8 8 6 4 4 5 6 7 8 10 12 13 15 15 13 10 7 4 3 3 3 3 3 4 6 8 8 8 7 7 7 7 6 7 9 11 13 15 16 17 16 14 13 12 10 9 7 6 5 5 7 10 15
5 5 5 6 7 7 6 6 6 6 7 7 7 6 6 6 5 5 5 5 5 5 6 6 6 6 9 7 7 5 2 -1 1 5 9 6 5 6 11 12 12 10 9 9 8 8 9 10 10 9 8 7 6 5 5 4 5 6 9 11 12 13 15 16 14 11 8 5 4 3 3 3 2 3 6 8 9 8 7 8 8 8 7 8 9 11 13 15 16 16 16 14 13 11 9 8 6 5 4 4 5 8 13
Height
3176 3176 3175 3175 3174 3173 3173 3172 3172 3171 3171 3171 3170 3169 3169 3168 3168 3167 3167 3166 3166 3165 3165 3164 3163 3163 3162 3162 3161 3161 3160 3160 3160 3159 3159 3158 3158 3158 3157 3157 3156 3156 3155 3155 3155 3154 3154 3153 3153 3153 3152 3152 3151 3151 3151 3150 3150 3149 3149 3149 3148 3148 3148 3148 3148 3148 3148 3148 3147 3147 3147 3147 3147 3147 3146 3146 3145 3145 3145 3144 3144 3144 3144 3144 3145 3145 3146 3146 3146 3146 3147 3147 3147 3147 3147 3147 3148 3148 3148 3148 3149 3149 3149
3175 3175 3174 3174 3173 3173 3172 3172 3171 3171 3170 3170 3169 3169 3168 3168 3167 3166 3166 3166 3165 3164 3164 3163 3163 3162 3161 3161 3161 3160 3159 3159 3158 3158 3158 3157 3157 3156 3156 3155 3155 3154 3154 3153 3153 3152 3152 3151 3151 3151 3150 3150 3149 3149 3148 3148 3148 3147 3147 3146 3146 3146 3146 3146 3145 3145 3145 3145 3145 3145 3145 3145 3145 3144 3144 3144 3143 3143 3142 3142 3142 3141 3141 3141 3141 3142 3142 3143 3143 3144 3144 3144 3144 3145 3145 3145 3145 3145 3146 3146 3146 3146 3147
3174 3174 3173 3173 3172 3172 3171 3171 3171 3170 3170 3169 3168 3168 3167 3167 3166 3166 3165 3165 3164 3164 3163 3162 3162 3161 3161 3160 3160 3159 3159 3158 3157 3157 3156 3156 3156 3155 3155 3154 3153 3153 3152 3152 3151 3151 3150 3150 3149 3149 3148 3148 3147 3147 3146 3146 3146 3145 3145 3144 3144 3144 3143 3143 3143 3143 3142 3142 3142 3142 3142 3142 3142 3141 3141 3141 3141 3141 3140 3140 3140 3139 3139 3139 3138 3139 3139 3140 3140 3141 3141 3141 3141 3141 3142 3142 3142 3143 3143 3143 3143 3144 3144
3174 3173 3173 3172 3171 3171 3171 3170 3170 3169 3169 3168 3168 3167 3167 3166 3166 3165 3165 3164 3163 3163 3162 3162 3161 3161 3160 3159 3159 3158 3157 3157 3156 3156 3155 3155 3154 3154 3153 3153 3152 3151 3151 3150 3150 3149 3148 3148 3147 3147 3146 3146 3145 3145 3144 3144 3143 3143 3142 3142 3142 3141 3141 3141 3140 3140 3140 3140 3140 3140 3139 3139 3139 3139 3139 3139 3138 3138 3138 3137 3137 3137 3136 3136 3136 3136 3136 3136 3136 3136 3137 3138 3139 3139 3139 3139 3139 3140 3140 3140 3141 3141 3141
3173 3172 3172 3171 3171 3170 3170 3169 3169 3168 3168 3167 3167 3166 3166 3165 3165 3164 3164 3163 3162 3162 3161 3161 3160 3160 3159 3158 3158 3157 3156 3156 3155 3155 3154 3153 3153 3152 3152 3151 3151 3150 3149 3149 3148 3147 3147 3146 3146 3145 3145 3144 3144 3143 3142 3142 3141 3141 3140 3140 3139 3139 3139 3138 3138 3138 3137 3137 3137 3137 3137 3136 3136 3136 3136 3136 3136 3136 3135 3135 3135 3134 3134 3134 3133 3133 3133 3132 3132 3133 3133 3134 3135 3136 3136 3136 3137 3137 3137 3137 3137 3138 3138
3172 3171 3171 3171 3170 3169 3169 3168 3168 3167 3167 3166 3166 3165 3165 3164 3164 3163 3162 3162 3161 3161 3160 3160 3159 3158 3158 3157 3156 3156 3155 3154 3154 3153 3152 3152 3151 3151 3150 3150 3149 3148 3148 3147 3146 3146 3145 3145 3144 3144 3143 3142 3142 3141 3141 3140 3139 3139 3138 3138 3137 3137 3136 3136 3136 3135 3135 3135 3135 3134 3134 3134 3134 3134 3133 3133 3133 3133 3132 3132 3132 3132 3131 3131 3131 3130 3130 3130 3129 3129 3129 3129 3130 3131 3132 3133 3134 3134 3134 3134 3134 3135 3135
3171 3171 3170 3169 3169 3168 3168 3167 3167 3166 3166 3165 3164 3164 3163 3163 3162 3162 3161 3161 3160 3159 3159 3158 3157 3157 3156 3156 3155 3154 3154 3153 3152 3152 3151 3150 3150 3149 3148 3148 3147 3147 3146 3146 3145 3144 3144 3143 3142 3142 3141 3141 3140 3139 3139 3138 3137 3137 3136 3136 3135 3135 3134 3134 3133 3133 3133 3132 3132 3132 3131 3131 3131 3131 3131 3131 3130 3130 3130 3130 3129 3129 3129 3128 3128 3127 3127 3127 3126 3126 3126 3126 3126 3126 3126 3128 3129 3130 3131 3132 3132 3132 3132
3170 3170 3169 3168 3168 3167 3167 3166 3166 3165 3164 3164 3163 3162 3162 3161 3161 3160 3160 3159 3158 3158 3157 3157 3156 3155 3155 3154 3153 3153 3152 3151 3151 3150 3149 3149 3148 3147 3147 3146 3146 3145 3144 3144 3143 3142 3142 3141 3141 3140 3139 3139 3138 3137 3137 3136 3136 3135 3134 3133 3133 3132 3132 3131 3131 3131 3130 3130 3130 3129 3129 3129 3128 3128 3128 3127 3127 3127 3127 3127 3126 3126 3126 3126 3125 3125 3124 3124 3124 3123 3123 3122 3122 3122 3122 3122 3123 3124 3126 3127 3128 3129 3129
3169 3168 3168 3167 3166 3166 3166 3165 3164 3164 3163 3162 3162 3161 3161 3160 3159 3159 3158 3157 3157 3156 3156 3155 3154 3154 3153 3152 3152 3151 3151 3150 3149 3148 3148 3147 3146 3146 3145 3145 3144 3143 3143 3142 3141 3141 3140 3139 3139 3138 3137 3136 3136 3135 3135 3134 3133 3133 3132 3131 3131 3130 3130 3129 3129 3128 3128 3127 3127 3127 3126 3126 3126 3125 3125 3125 3124 3124 3124 3124 3123 3123 3123 3122 3122 3122 3121 3121 3121 3120 3120 3119 3119 3118 3118 3118 3118 3118 3119 3121 3122 3124 3126
3168 3167 3167 3166 3166 3165 3164 3164 3163 3162 3162 3161 3160 3160 3159 3158 3158 3157 3156 3156 3155 3155 3154 3153 3153 3152 3151 3151 3150 3149 3149 3148 3147 3146 3146 3145 3145 3144 3143 3143 3142 3141 3141 3140 3139 3139 3138 3137 3136 3136 3135 3135 3134 3133 3133 3132 3131 3131 3130 3129 3129 3128 3127 3127 3126 3126 3126 3125 3125 3124 3124 3123 3123 3123 3122 3122 3122 3121 3121 3121 3120 3120 3120 3119 3119 3119 3118 3118 3118 3117 3117 3116 3116 3115 3115 3114 3114 3114 3114 3114 3115 3117 3119
3167 3166 3166 3165 3164 3164 3163 3162 3162 3161 3160 3160 3159 3158 3157 3157 3156 3156 3155 3154 3154 3153 3152 3151 3151 3150 3150 3149 3148 3147 3146 3146 3145 3145 3144 3143 3143 3142 3141 3141 3140 3140 3139 3138 3137 3136 3136 3135 3134 3134 3133 3132 3131 3131 3131 3130 3129 3128 3128 3127 3126 3126 3125 3125 3124 3123 3123 3122 3122 3121 3121 3121 3120 3120 3120 3120 3119 3119 3119 3118 3118 3117 3117 3116 3116 3115 3115 3115 3114 3114 3114 3113 3113 3112 3112 3111 3111 3111 3110 3110 3110 3110 3111
3166 3165 3165 3164 3163 3162 3162 3161 3161 3160 3159 3158 3158 3157 3156 3155 3155 3154 3153 3153 3152 3151 3151 3150 3149 3148 3148 3147 3146 3145 3145 3144 3143 3142 3142 3141 3141 3140 3139 3139 3138 3137 3136 3136 3135 3134 3133 3133 3132 3131 3131 3130 3129 3128 3128 3127 3126 3126 3125 3125 3124 3123 3122 3122 3121 3120 3120 3119 3118 3118 3117 3117 3116 3116 3116 3116 3116 3116 3116 3116 3115 3115 3114 3114 3113 3112 3112 3111 3111 3111 3110 3110 3110 3109 3109 3108 3108 3107 3107 3106 3106 3106 3106
3165 3164 3163 3163 3162 3161 3161 3160 3159 3159 3158 3157 3156 3156 3155 3154 3153 3152 3152 3151 3150 3150 3149 3148 3147 3146 3146 3145 3144 3143 3143 3142 3141 3140 3140 3139 3138 3137 3137 3136 3136 3135 3134 3133 3132 3132 3131 3130 3129 3129 3128 3127 3126 3126 3125 3125 3124 3123 3122 3122 3121 3120 3120 3119 3118 3117 3116 3116 3115 3114 3114 3113 3112 3112 3111 3111 3111 3111 3111 3111 3111 3111 3111 3111 3110 3110 3109 3108 3108 3107 3107 3106 3106 3106 3106 3105 3105 3104 3104 3103 3103 3102 3102
3163 3163 3162 3161 3161 3160 3160 3159 3158 3157 3157 3156 3155 3155 3154 3153 3152 3151 3151 3150 3149 3148 3147 3146 3146 3145 3144 3143 3142 3141 3141 3140 3139 3138 3137 3137 3136 3135 3134 3134 3133 3132 3131 3131 3130 3129 3128 3128 3127 3126 3125 3124 3124 3123 3122 3121 3121 3120 3119 3119 3118 3117 3116 3116 3115 3114 3113 3112 3111 3111 3110 3110 3109 3108 3107 3107 3106 3106 3105 3105 3105 3105 3105 3106 3106 3106 3105 3105 3105 3104 3103 3103 3102 3102 3102 3101 3101 3101 3101 3100 3099 3099 3098
3162 3162 3161 3161 3160 3159 3158 3158 3157 3156 3156 3155 3154 3153 3153 3152 3151 3150 3149 3148 3148 3147 3146 3145 3144 3143 3142 3141 3140 3140 3139 3138 3137 3136 3136 3135 3134 3133 3132 3131 3130 3129 3129 3128 3127 3126 3126 3125 3124 3123 3122 3122 3121 3120 3119 3119 3118 3117 3116 3116 3115 3114 3113 3112 3111 3111 3110 3109 3108 3107 3106 3106 3105 3104 3104 3103 3102 3101 3101 3101 3100 3100 3099 3099 3099 3099 3100 3100 3100 3100 3100 3099 3099 3098 3098 3097 3097 3097 3096 3096 3096 3095 3095
3161 3161 3160 3159 3159 3158 3157 3156 3156 3155 3155 3154 3153 3152 3151 3151 3150 3149 3148 3147 3146 3146 3145 3144 3142 3141 3141 3139 3138 3137 3136 3136 3135 3134 3133 3132 3131 3131 3130 3129 3128 3127 3126 3126 3125 3124 3123 3122 3122 3121 3120 3119 3118 3117 3116 3116 3115 3114 3113 3112 3112 3111 3110 3109 3108 3107 3106 3106 3105 3104 3103 3102 3101 3101 3100 3099 3099 3098 3097 3096 3096 3096 3095 3095 3094 3094 3094 3094 3094 3095 3095 3095 3095 3094 3094 3093 3093 3092 3092 3092 3091 3091 3091
3161 3160 3159 3158 3158 3157 3156 3155 3155 3154 3153 3152 3152 3151 3150 3149 3148 3148 3147 3146 3145 3144 3143 3142 3141 3140 3139 3138 3137 3136 3135 3134 3133 3132 3131 3130 3129 3128 3127 3126 3126 3125 3124 3123 3122 3121 3121 3120 3119 3118 3117 3116 3116 3115 3114 3113 3112 3111 3111 3110 3109 3108 3107 3106 3106 3105 3103 3102 3101 3101 3100 3098 3098 3097 3096 3095 3095 3094 3093 3093 3092 3091 3091 3091 3090 3090 3089 3089 3089 3089 3089 3090 3090 3090 3090 3089 3089 3088 3088 3087 3087 3087 3087
3159 3159 3158 3157 3156 3156 3155 3154 3153 3153 3152 3151 3150 3150 3149 3148 3147 3146 3145 3144 3143 3143 3142 3141 3140 3139 3138 3137 3136 3135 3133 3132 3131 3130 3129 3128 3127 3126 3125 3124 3123 3123 3122 3121 3120 3119 3118 3118 3117 3116 3115 3114 3113 3112 3111 3110 3109 3108 3107 3107 3106 3105 3104 3103 3102 3101 3101 3099 3098 3097 3096 3095 3094 3093 3092 3092 3091 3091 3090 3089 3088 3087 3087 3086 3086 3085 3085 3085 3084 3084 3084 3084 3084 3084 3085 3085 3085 3084 3083 3083 3083 3082 3082
3158 3157 3157 3156 3156 3155 3154 3153 3152 3151 3151 3150 3149 3148 3147 3146 3146 3145 3144 3143 3142 3141 3140 3139 3138 3137 3136 3135 3134 3133 3132 3131 3130 3129 3127 3126 3125 3124 3123 3122 3121 3121 3120 3119 3118 3117 3116 3115 3114 3113 3112 3111 3110 3109 3108 3107 3106 3105 3105 3104 3103 3102 3101 3100 3099 3098 3097 3096 3095 3094 3093 3092 3091 3090 3089 3088 3088 3087 3086 3085 3084 3083 3082 3082 3081 3081 3081 3080 3080 3079 3079 3078 3078 3078 3079 3079 3080 3080 3079 3079 3078 3078 3078
3157 3156 3156 3155 3154 3154 3153 3152 3151 3150 3150 3149 3148 3147 3146 3145 3144 3143 3142 3141 3140 3139 3138 3137 3136 3136 3135 3134 3133 3132 3131 3129 3128 3127 3126 3125 3123 3122 3121 3120 3119 3118 3117 3116 3116 3115 3114 3113 3112 3111 3110 3109 3108 3106 3105 3104 3103 3102 3101 3100 3099 3098 3097 3096 3096 3095 3094 3093 3092 3091 3089 3088 3087 3086 3086 3085 3084 3083 3082 3081 3080 3080 3078 3078 3077 3077 3076 3076 3075 3074 3074 3074 3073 3073 3073 3073 3074 3074 3075 3075 3074 3074 3073
3156 3155 3155 3154 3153 3152 3152 3151 3150 3149 3148 3147 3146 3146 3145 3144 3143 3142 3141 3140 3139 3138 3136 3136 3135 3134 3133 3132 3131 3130 3129 3128 3126 3125 3124 3123 3121 3120 3119 3118 3117 3116 3115 3114 3113 3112 3111 3110 3109 3108 3107 3106 3105 3104 3102 3101 3100 3099 3098 3097 3096 3095 3094 3093 3092 3091 3090 3089 3088 3087 3085 3085 3083 3082 3081 3081 3080 3079 3078 3077 3076 3076 3074 3074 3073 3072 3072 3071 3071 3070 3070 3069 3069 3069 3068 3068 3068 3068 3068 3069 3069 3069 3069
3155 3154 3153 3153 3152 3151 3151 3150 3149 3148 3147 3146 3145 3144 3143 3142 3141 3140 3139 3138 3137 3136 3135 3134 3133 3132 3131 3130 3129 3128 3126 3126 3124 3123 3122 3121 3119 3118 3117 3116 3115 3114 3112 3111 3110 3109 3108 3107 3106 3105 3104 3103 3102 3101 3099 3098 3097 3096 3094 3093 3092 3091 3090 3089 3088 3087 3086 3085 3084 3083 3081 3080 3079 3078 3077 3076 3075 3074 3073 3072 3072 3071 3070 3069 3068 3068 3067 3067 3066 3066 3065 3065 3064 3064 3063 3063 3062 3062 3062 3062 3063 3064 3064
3154 3153 3152 3151 3151 3150 3149 3148 3147 3146 3146 3145 3144 3143 3142 3141 3140 3139 3138 3136 3135 3134 3133 3132 3131 3130 3129 3128 3126 3126 3124 3123 3122 3121 3120 3119 3117 3116 3115 3113 3112 3111 3110 3109 3107 3106 3105 3104 3103 3102 3101 3100 3098 3097 3096 3094 3093 3092 3091 3089 3088 3087 3086 3085 3084 3082 3081 3080 3079 3078 3077 3076 3075 3073 3072 3071 3070 3069 3068 3067 3066 3066 3065 3064 3063 3062 3062 3061 3061 3061 3060 3060 3059 3059 3058 3058 3057 3056 3056 3056 3056 3057 3057
3152 3151 3151 3150 3149 3148 3148 3147 3146 3145 3144 3143 3142 3141 3140 3139 3138 3137 3136 3135 3134 3132 3131 3130 3129 3128 3126 3126 3124 3123 3122 3121 3120 3119 3117 3116 3115 3114 3112 3111 3110 3108 3107 3106 3104 3103 3102 3101 3099 3098 3097 3096 3095 3093 3092 3091 3089 3088 3087 3086 3084 3083 3082 3081 3079 3078 3077 3076 3075 3074 3072 3071 3070 3069 3067 3066 3065 3064 3063 3062 3061 3060 3059 3058 3057 3057 3056 3056 3056 3055 3055 3054 3054 3054 3054 3053 3052 3052 3051 3051 3051 3051 3051
3151 3150 3150 3149 3148 3147 3146 3145 3144 3143 3142 3141 3141 3140 3138 3137 3136 3135 3134 3133 3132 3131 3129 3128 3127 3126 3124 3123 3122 3121 3120 3118 3117 3116 3115 3114 3112 3111 3110 3108 3107 3106 3104 3103 3101 3100 3098 3097 3096 3094 3093 3092 3091 3090 3088 3087 3085 3084 3083 3081 3080 3079 3077 3076 3075 3074 3072 3071 3070 3069 3068 3066 3065 3064 3063 3061 3060 3059 3058 3056 3056 3055 3054 3052 3051 3051 3051 3050 3050 3049 3049 3049 3049 3049 3049 3048 3047 3047 3046 3046 3045 3045 3044
3150 3149 3148 3147 3146 3146 3145 3144 3143 3142 3141 3140 3139 3138 3137 3136 3135 3133 3132 3131 3130 3129 3127 3126 3125 3124 3122 3121 3120 3118 3117 3116 3115 3113 3112 3111 3110 3108 3107 3106 3104 3103 3101 3100 3098 3097 3095 3094 3092 3091 3089 3088 3087 3086 3084 3083 3081 3080 3079 3077 3076 3075 3073 3072 3071 3069 3068 3067 3066 3064 3063 3062 3061 3059 3058 3057 3056 3054 3053 3051 3051 3050 3048 3047 3046 3046 3045 3044 3044 3044 3043 3043 3043 3043 3043 3042 3042 3041 3041 3040 3039 3039 3038
3149 3148 3147 3146 3145 3144 3143 3142 3141 3140 3139 3138 3137 3136 3135 3134 3132 3131 3130 3129 3128 3126 3125 3124 3123 3121 3120 3119 3117 3116 3115 3114 3112 3111 3110 3108 3107 3106 3104 3103 3101 3100 3099 3097 3096 3094 3092 3091 3089 3087 3086 3084 3083 3082 3081 3079 3078 3076 3075 3073 3072 3071 3069 3068 3066 3065 3064 3062 3061 3060 3058 3057 3056 3055 3053 3052 3051 3049 3048 3047 3046 3045 3043 3042 3041 3040 3039 3039 3038 3038 3038 3038 3038 3038 3038 3037 3036 3036 3035 3034 3034 3033 3033
3147 3146 3145 3144 3143 3142 3141 3140 3139 3138 3137 3136 3135 3134 3133 3132 3131 3129 3128 3127 3126 3124 3123 3122 3121 3119 3118 3116 3115 3114 3113 3111 3110 3109 3107 3106 3105 3103 3102 3100 3099 3097 3096 3094 3092 3091 3089 3087 3086 3084 3082 3081 3080 3078 3077 3076 3074 3073 3071 3070 3068 3067 3065 3064 3062 3061 3059 3058 3056 3055 3054 3052 3051 3050 3048 3047 3046 3045 3043 3042 3041 3040 3039 3038 3037 3036 3035 3034 3033 3033 3032 3032 3032 3032 3032 3032 3031 3030 3029 3029 3028 3028 3027
3146 3145 3144 3143 3142 3141 3140 3139 3138 3136 3136 3134 3133 3132 3131 3130 3128 3127 3126 3125 3123 3122 3121 3119 3118 3117 3116 3114 3113 3112 3110 3109 3108 3106 3105 3104 3102 3101 3099 3098 3096 3095 3093 3091 3090 3088 3086 3085 3083 3081 3080 3078 3076 3075 3073 3072 3071 3069 3067 3066 3064 3063 3061 3060 3058 3056 3055 3053 3052 3051 3049 3048 3047 3045 3044 3043 3041 3040 3039 3038 3037 3036 3035 3034 3033 3032 3031 3030 3029 3028 3027 3027 3027 3026 3026 3026 3025 3024 3024 3023 3022 3022 3021
3144 3143 3142 3141 3140 3139 3138 3137 3136 3135 3133 3132 3131 3130 3129 3127 3126 3125 3124 3122 3121 3120 3118 3117 3116 3115 3113 3112 3111 3109 3108 3107 3106 3104 3103 3101 3100 3098 3097 3095 3094 3092 3090 3088 3087 3085 3084 3082 3080 3078 3077 3075 3073 3072 3070 3069 3067 3066 3064 3062 3061 3059 3057 3056 3054 3052 3051 3050 3048 3046 3045 3044 3042 3041 3040 3039 3037 3036 3035 3034 3033 3032 3031 3030 3029 3028 3026 3025 3024 3024 3023 3022 3022 3021 3021 3020 3020 3019 3018 3018 3017 3016 3016
3142 3141 3140 3139 3138 3137 3136 3135 3134 3133 3131 3130 3129 3128 3126 3125 3124 3123 3121 3120 3119 3117 3116 3115 3113 3112 3111 3110 3108 3107 3106 3105 3103 3102 3101 3099 3097 3096 3094 3093 3091 3089 3087 3086 3084 3082 3081 3079 3078 3076 3074 3072 3071 3069 3067 3066 3064 3063 3061 3059 3057 3056 3054 3052 3051 3049 3047 3046 3044 3043 3041 3040 3039 3037 3036 3035 3033 3032 3031 3030 3029 3028 3026 3026 3025 3024 3022 3021 3020 3019 3018 3017 3017 3016 3016 3015 3015 3014 3013 3012 3012 3011 3011
3141 3139 3138 3137 3136 3135 3134 3133 3132 3131 3129 3128 3127 3126 3125 3123 3122 3121 3119 3118 3116 3115 3114 3113 3111 3110 3109 3107 3106 3105 3104 3102 3101 3100 3098 3097 3095 3094 3092 3090 3088 3086 3085 3083 3081 3080 3078 3077 3075 3073 3071 3070 3068 3066 3065 3063 3061 3060 3058 3056 3054 3052 3051 3049 3047 3046 3044 3043 3041 3040 3038 3036 3035 3034 3032 3031 3030 3028 3027 3026 3025 3024 3022 3021 3021 3020 3019 3017 3016 3015 3014 3013 3012 3011 3011 3010 3009 3008 3008 3007 3006 3006 3006
3139 3137 3136 3135 3134 3133 3132 3131 3130 3128 3127 3126 3125 3124 3122 3121 3120 3118 3117 3116 3115 3113 3112 3111 3109 3108 3106 3105 3104 3103 3101 3100 3099 3097 3096 3095 3093 3091 3090 3088 3086 3084 3082 3081 3079 3077 3076 3074 3072 3071 3069 3067 3065 3064 3062 3060 3058 3056 3055 3053 3051 3049 3048 3046 3044 3043 3041 3040 3038 3036 3035 3033 3031 3030 3029 3027 3026 3025 3024 3022 3021 3020 3019 3018 3017 3016 3015 3014 3013 3011 3011 3009 3008 3007 3006 3005 3004 3003 3003 3002 3001 3001 3000
3137 3136 3135 3134 3132 3131 3130 3129 3128 3126 3125 3124 3123 3121 3120 3119 3118 3116 3115 3114 3112 3111 3110 3108 3107 3106 3104 3103 3102 3101 3099 3098 3096 3095 3094 3092 3091 3089 3087 3086 3084 3082 3080 3078 3076 3075 3073 3071 3070 3068 3066 3065 3063 3061 3059 3057 3055 3053 3052 3050 3048 3046 3045 3043 3041 3040 3038 3037 3035 3034 3032 3030 3028 3026 3025 3024 3022 3021 3020 3019 3018 3016 3015 3014 3013 3012 3011 3011 3009 3008 3006 3005 3004 3002 3001 3000 2999 2999 2998 2997 2996 2996 2995
3135 3134 3133 3132 3131 3129 3128 3127 3126 3125 3123 3122 3121 3119 3118 3117 3115 3114 3113 3111 3110 3109 3108 3106 3105 3104 3102 3101 3100 3098 3097 3096 3094 3093 3091 3090 3088 3087 3085 3083 3081 3080 3078 3076 3074 3072 3071 3069 3067 3066 3064 3062 3060 3058 3056 3054 3052 3051 3049 3047 3045 3044 3042 3041 3039 3037 3036 3034 3032 3030 3028 3027 3025 3023 3022 3021 3019 3018 3017 3016 3015 3013 3012 3011 3010 3009 3008 3007 3006 3004 3003 3001 3000 2998 2997 2996 2995 2994 2993 2992 2991 2991 2990
3133 3132 3131 3130 3129 3127 3126 3125 3124 3123 3121 3120 3118 3117 3116 3114 3113 3111 3110 3109 3108 3106 3105 3104 3103 3101 3100 3099 3097 3096 3095 3093 3092 3091 3089 3087 3086 3084 3083 3081 3079 3078 3076 3074 3072 3070 3069 3066 3065 3063 3061 3059 3057 3056 3054 3052 3050 3048 3046 3044 3042 3041 3039 3037 3036 3034 3032 3031 3029 3027 3025 3024 3022 3020 3019 3017 3016 3015 3014 3013 3011 3010 3009 3008 3007 3006 3004 3003 3002 3001 2999 2997 2996 2994 2992 2991 2990 2989 2988 2987 2987 2986 2985
3131 3130 3129 3128 3126 3126 3124 3123 3122 3120 3119 3118 3116 3115 3113 3112 3111 3109 3108 3107 3106 3104 3103 3102 3101 3099 3098 3096 3095 3094 3092 3091 3090 3088 3086 3085 3083 3082 3080 3079 3077 3075 3074 3072 3070 3068 3066 3065 3062 3061 3059 3057 3055 3053 3051 3049 3047 3045 3043 3041 3039 3038 3036 3034 3032 3030 3028 3027 3025 3024 3022 3020 3018 3017 3016 3014 3013 3012 3011 3010 3008 3007 3006 3005 3004 3002 3001 3000 2999 2997 2995 2993 2991 2990 2988 2987 2986 2985 2984 2983 2982 2981 2980
3129 3128 3127 3126 3124 3123 3122 3121 3119 3118 3116 3115 3114 3112 3111 3110 3108 3107 3106 3105 3103 3102 3101 3100 3098 3097 3096 3094 3092 3091 3090 3088 3087 3086 3084 3082 3081 3079 3077 3076 3074 3072 3071 3069 3067 3066 3064 3062 3061 3059 3056 3055 3053 3051 3048 3046 3045 3042 3041 3039 3037 3035 3033 3031 3029 3027 3025 3023 3022 3020 3018 3017 3015 3013 3012 3011 3010 3009 3008 3007 3006 3004 3003 3002 3001 3000 2998 2997 2995 2993 2991 2990 2988 2986 2984 2983 2981 2980 2979 2978 2977 2976 2976
3126 3126 3124 3123 3122 3121 3119 3118 3117 3116 3114 3113 3111 3110 3109 3108 3106 3105 3104 3103 3101 3100 3099 3097 3096 3095 3093 3091 3090 3088 3087 3086 3084 3083 3081 3080 3078 3076 3075 3073 3071 3070 3068 3066 3065 3063 3062 3060 3058 3056 3054 3052 3050 3048 3046 3044 3042 3040 3038 3036 3034 3032 3030 3028 3026 3024 3022 3021 3019 3017 3015 3013 3012 3010 3009 3008 3007 3006 3005 3004 3002 3001 3000 2999 2998 2997 2996 2994 2992 2990 2988 2986 2984 2982 2981 2979 2977 2976 2975 2974 2973 2972 2971
3124 3123 3122 3121 3119 3118 3117 3116 3115 3113 3112 3111 3109 3108 3107 3106 3104 3103 3102 3101 3099 3098 3096 3095 3094 3092 3091 3089 3087 3086 3084 3083 3081 3080 3079 3077 3076 3074 3072 3071 3069 3067 3065 3064 3062 3061 3059 3057 3056 3054 3052 3050 3048 3046 3044 3042 3040 3038 3036 3034 3032 3030 3028 3026 3024 3022 3021 3019 3016 3015 3012 3011 3009 3007 3006 3005 3004 3003 3002 3001 3000 2999 2998 2997 2996 2995 2993 2991 2989 2987 2985 2982 2981 2979 2977 2975 2974 2972 2971 2969 2968 2967 2966
3122 3121 3119 3118 3117 3116 3115 3113 3112 3111 3110 3108 3107 3106 3105 3103 3102 3101 3100 3099 3097 3096 3094 3092 3091 3090 3088 3086 3085 3083 3082 3080 3079 3077 3076 3075 3073 3071 3070 3068 3066 3065 3063 3061 3059 3058 3056 3055 3053 3051 3050 3048 3046 3044 3042 3040 3038 3036 3034 3032 3030 3028 3026 3024 3022 3021 3019 3016 3014 3012 3010 3008 3007 3005 3004 3002 3001 3000 2999 2998 2997 2996 2996 2995 2993 2992 2990 2988 2986 2984 2981 2979 2977 2975 2973 2972 2970 2968 2966 2965 2964 2962 2961
3120 3118 3117 3116 3115 3113 3112 3111 3110 3109 3107 3106 3105 3104 3103 3101 3100 3099 3097 3096 3095 3093 3092 3090 3089 3087 3086 3084 3082 3081 3079 3077 3076 3075 3073 3072 3071 3069 3067 3066 3064 3062 3061 3059 3057 3056 3054 3052 3051 3049 3048 3046 3044 3042 3041 3039 3036 3035 3032 3031 3028 3026 3025 3022 3021 3019 3016 3015 3012 3010 3008 3006 3005 3003 3001 3000 2999 2998 2997 2996 2995 2994 2993 2992 2991 2990 2988 2986 2983 2981 2979 2976 2974 2972 2970 2968 2966 2964 2962 2961 2959 2958 2957
3117 3116 3115 3114 3112 3111 3110 3109 3108 3106 3105 3104 3103 3102 3101 3099 3098 3096 3095 3094 3092 3091 3090 3088 3086 3085 3083 3081 3080 3078 3076 3075 3073 3072 3071 3070 3068 3067 3065 3064 3062 3061 3059 3057 3055 3054 3052 3051 3049 3047 3046 3044 3042 3041 3039 3037 3035 3033 3031 3029 3027 3025 3023 3021 3018 3016 3014 3012 3010 3008 3006 3004 3002 3001 2999 2998 2996 2995 2994 2993 2992 2991 2991 2990 2988 2987 2985 2983 2981 2978 2976 2973 2971 2969 2967 2965 2963 2961 2959 2957 2955 2954 2953
3115 3114 3113 3111 3110 3109 3108 3107 3106 3104 3103 3102 3101 3100 3098 3097 3096 3094 3093 3091 3090 3088 3087 3086 3084 3082 3081 3079 3077 3076 3074 3072 3071 3069 3068 3067 3066 3064 3062 3061 3060 3058 3057 3055 3053 3052 3050 3049 3047 3046 3044 3042 3041 3039 3037 3036 3034 3032 3030 3028 3026 3023 3021 3019 3016 3014 3012 3010 3008 3006 3004 3001 3000 2998 2996 2995 2993 2992 2991 2990 2989 2988 2988 2987 2986 2984 2982 2980 2977 2975 2972 2970 2968 2966 2964 2962 2960 2957 2955 2953 2952 2951 2950
3113 3112 3111 3109 3108 3107 3106 3105 3103 3102 3101 3100 3098 3097 3096 3095 3093 3092 3091 3089 3087 3086 3084 3083 3081 3080 3078 3076 3075 3073 3071 3070 3068 3066 3065 3064 3062 3061 3060 3058 3057 3056 3054 3053 3051 3050 3048 3047 3046 3044 3042 3040 3039 3037 3036 3034 3032 3030 3028 3026 3023 3021 3019 3017 3015 3012 3010 3008 3006 3004 3001 2999 2997 2995 2994 2992 2991 2989 2988 2987 2986 2985 2984 2984 2982 2981 2979 2976 2974 2972 2970 2967 2965 2963 2961 2958 2956 2954 2952 2950 2948 2947 2947
3111 3110 3108 3107 3106 3105 3103 3102 3101 3100 3099 3097 3096 3095 3093 3092 3091 3089 3088 3086 3085 3083 3082 3080 3079 3077 3076 3074 3072 3071 3069 3067 3065 3064 3062 3061 3060 3058 3056 3055 3054 3053 3052 3051 3049 3048 3046 3045 3044 3042 3041 3039 3037 3035 3034 3032 3030 3028 3026 3023 3021 3019 3017 3015 3013 3011 3009 3006 3004 3001 2999 2997 2995 2993 2991 2989 2988 2986 2985 2984 2983 2982 2981 2980 2979 2977 2976 2973 2971 2969 2966 2964 2962 2960 2957 2955 2953 2951 2949 2947 2946 2945 2944
3109 3108 3106 3105 3104 3102 3101 3100 3099 3097 3096 3095 3094 3092 3091 3090 3088 3087 3086 3084 3082 3081 3079 3078 3076 3075 3073 3071 3070 3068 3066 3064 3062 3061 3059 3058 3056 3055 3054 3052 3051 3050 3049 3048 3046 3045 3044 3043 3042 3041 3039 3037 3035 3033 3031 3030 3028 3026 3023 3021 3019 3017 3016 3013 3011 3010 3007 3005 3002 3000 2997 2995 2993 2991 2989 2987 2985 2983 2982 2981 2980 2979 2978 2976 2975 2974 2972 2971 2968 2966 2964 2961 2959 2957 2954 2952 2950 2948 2946 2945 2943 2942 2941
3106 3105 3104 3103 3101 3100 3099 3098 3096 3095 3094 3092 3091 3090 3088 3087 3086 3084 3083 3081 3080 3078 3077 3076 3074 3072 3071 3069 3067 3066 3064 3062 3060 3058 3057 3055 3053 3052 3050 3049 3047 3046 3045 3044 3042 3042 3041 3041 3040 3039 3037 3035 3033 3031 3029 3027 3025 3023 3021 3019 3017 3015 3013 3012 3010 3008 3006 3003 3001 2998 2996 2993 2991 2989 2986 2984 2983 2981 2980 2978 2977 2976 2974 2973 2972 2970 2969 2967 2966 2964 2961 2959 2956 2954 2951 2949 2947 2946 2944 2942 2941 2940 2939
3104 3103 3102 3101 3099 3098 3096 3095 3094 3093 3091 3090 3089 3087 3086 3085 3083 3082 3080 3079 3077 3076 3074 3073 3071 3070 3068 3066 3065 3063 3061 3059 3057 3056 3054 3053 3051 3048 3046 3045 3043 3041 3040 3039 3038 3036 3036 3036 3036 3036 3035 3033 3031 3029 3027 3025 3023 3021 3019 3017 3015 3013 3011 3010 3008 3006 3004 3002 2999 2997 2994 2991 2989 2986 2984 2982 2980 2979 2977 2976 2975 2973 2971 2969 2968 2967 2966 2965 2963 2961 2959 2957 2954 2951 2949 2947 2945 2943 2942 2940 2939 2937 2936
3102 3101 3100 3098 3097 3095 3094 3093 3091 3090 3089 3088 3086 3085 3083 3082 3081 3079 3077 3076 3075 3073 3071 3070 3069 3067 3066 3064 3062 3060 3058 3056 3055 3053 3051 3049 3048 3046 3044 3042 3041 3039 3037 3035 3033 3031 3030 3029 3030 3031 3031 3030 3028 3026 3024 3022 3021 3018 3016 3015 3013 3011 3009 3007 3005 3003 3001 2999 2997 2995 2992 2990 2987 2985 2982 2980 2978 2976 2975 2974 2972 2970 2967 2966 2965 2963 2962 2961 2960 2958 2956 2954 2951 2949 2946 2944 2943 2941 2940 2938 2937 2935 2934
3099 3098 3097 3096 3094 3093 3091 3090 3089 3088 3087 3085 3084 3082 3081 3079 3078 3076 3075 3073 3072 3071 3069 3068 3066 3065 3063 3062 3060 3058 3056 3054 3052 3051 3049 3046 3045 3044 3042 3040 3039 3037 3036 3033 3030 3028 3025 3023 3024 3025 3026 3025 3024 3023 3021 3019 3017 3016 3014 3012 3010 3008 3006 3004 3002 3001 2999 2997 2995 2993 2991 2988 2986 2983 2980 2978 2976 2974 2973 2971 2969 2967 2965 2963 2961 2960 2959 2958 2957 2956 2953 2951 2949 2946 2944 2942 2940 2939 2937 2936 2935 2933 2932
3097 3096 3095 3093 3092 3091 3089 3088 3087 3086 3084 3083 3081 3080 3078 3077 3075 3074 3072 3071 3069 3068 3066 3065 3064 3062 3061 3060 3057 3055 3054 3051 3050 3048 3047 3045 3042 3041 3039 3038 3036 3034 3033 3031 3029 3026 3023 3019 3017 3017 3019 3018 3017 3017 3017 3015 3014 3012 3011 3009 3007 3005 3003 3002 3000 2998 2996 2994 2992 2991 2988 2986 2983 2981 2978 2976 2974 2972 2971 2969 2967 2965 2962 2961 2959 2958 2956 2956 2954 2952 2950 2948 2946 2944 2941 2939 2938 2936 2935 2934 2932 2931 2930
3094 3093 3092 3091 3089 3088 3086 3085 3084 3083 3081 3080 3079 3077 3076 3074 3073 3071 3070 3068 3067 3065 3064 3062 3061 3060 3058 3057 3055 3053 3051 3050 3048 3046 3044 3043 3041 3039 3036 3035 3033 3031 3030 3030 3028 3025 3022 3018 3015 3012 3012 3013 3013 3013 3014 3013 3011 3010 3008 3006 3004 3003 3001 2999 2997 2996 2994 2992 2990 2988 2986 2983 2981 2979 2976 2974 2972 2971 2969 2967 2965 2962 2960 2958 2956 2955 2954 2953 2951 2949 2947 2945 2943 2941 2939 2937 2935 2933 2932 2931 2930 2928 2927
3092 3091 3089 3088 3087 3086 3084 3083 3081 3080 3079 3078 3076 3075 3073 3072 3071 3069 3067 3066 3064 3063 3061 3060 3059 3057 3056 3054 3053 3051 3049 3048 3046 3044 3042 3041 3040 3038 3035 3033 3032 3030 3027 3026 3026 3023 3021 3018 3016 3014 3012 3012 3011 3012 3012 3011 3009 3007 3006 3004 3002 3000 2998 2996 2995 2993 2991 2990 2988 2986 2983 2981 2979 2977 2975 2972 2971 2968 2966 2965 2962 2960 2957 2956 2954 2953 2951 2950 2949 2946 2944 2942 2941 2938 2936 2934 2932 2931 2929 2928 2927 2926 2924
3089 3088 3087 3085 3084 3083 3081 3080 3079 3077 3076 3075 3074 3072 3071 3069 3068 3066 3065 3063 3062 3060 3059 3057 3056 3055 3053 3051 3050 3048 3047 3045 3043 3042 3040 3038 3037 3036 3034 3032 3030 3028 3025 3023 3022 3021 3020 3017 3016 3014 3013 3012 3011 3009 3009 3009 3007 3005 3003 3001 3000 2998 2996 2994 2993 2991 2990 2988 2986 2984 2981 2979 2977 2975 2973 2971 2968 2966 2964 2962 2960 2957 2955 2953 2952 2951 2949 2948 2946 2944 2941 2940 2938 2936 2934 2932 2930 2928 2927 2926 2924 2923 2922
3086 3085 3084 3083 3081 3080 3079 3077 3076 3075 3074 3072 3071 3069 3068 3066 3065 3064 3062 3061 3059 3058 3056 3055 3054 3052 3051 3049 3047 3046 3044 3042 3041 3039 3038 3036 3034 3033 3031 3030 3029 3027 3025 3023 3021 3019 3017 3016 3014 3011 3009 3009 3009 3007 3006 3006 3006 3004 3001 2999 2997 2996 2994 2992 2991 2989 2988 2986 2984 2981 2980 2977 2976 2973 2971 2968 2966 2964 2961 2959 2957 2955 2953 2951 2949 2948 2946 2945 2943 2941 2938 2936 2935 2933 2931 2930 2928 2926 2925 2923 2922 2921 2919
3084 3082 3081 3080 3079 3077 3076 3075 3073 3072 3071 3070 3068 3067 3065 3064 3062 3061 3060 3058 3056 3055 3054 3052 3051 3050 3048 3046 3045 3043 3042 3040 3038 3036 3035 3034 3032 3030 3029 3027 3026 3025 3024 3022 3020 3018 3015 3013 3011 3010 3006 3005 3005 3005 3004 3002 3002 3001 3000 2997 2995 2993 2991 2990 2988 2987 2985 2983 2981 2979 2977 2975 2973 2971 2968 2966 2964 2961 2959 2957 2955 2952 2950 2949 2947 2946 2944 2942 2940 2938 2936 2934 2932 2930 2928 2927 2925 2924 2922 2921 2920 2918 2917
3081 3080 3079 3077 3076 3074 3073 3072 3071 3069 3068 3067 3066 3064 3062 3061 3060 3058 3057 3055 3054 3052 3051 3050 3048 3047 3045 3044 3042 3041 3039 3038 3036 3033 3031 3031 3030 3028 3026 3025 3023 3021 3020 3018 3017 3015 3013 3010 3008 3006 3004 3002 3001 3001 3001 3000 2998 2997 2996 2995 2993 2991 2989 2987 2986 2984 2982 2981 2979 2976 2974 2972 2971 2969 2966 2963 2961 2958 2956 2954 2952 2950 2948 2946 2945 2943 2941 2939 2937 2935 2933 2931 2929 2927 2926 2924 2922 2921 2920 2918 2917 2916 2914
3078 3077 3076 3075 3073 3072 3070 3069 3068 3066 3066 3064 3063 3061 3060 3059 3057 3056 3054 3052 3051 3050 3048 3047 3046 3044 3042 3041 3040 3038 3037 3035 3033 3031 3029 3027 3026 3025 3024 3022 3021 3019 3017 3015 3013 3012 3011 3009 3006 3003 3001 2999 2998 2997 2997 2996 2996 2995 2993 2992 2990 2989 2987 2985 2984 2981 2980 2978 2976 2974 2972 2970 2968 2966 2964 2961 2958 2956 2954 2951 2949 2947 2945 2944 2942 2940 2938 2936 2934 2932 2931 2928 2926 2925 2923 2921 2920 2918 2917 2916 2914 2913 2911
3075 3074 3073 3072 3071 3069 3068 3066 3065 3064 3063 3061 3060 3059 3057 3056 3055 3053 3051 3050 3048 3047 3046 3044 3043 3041 3040 3038 3037 3036 3034 3033 3031 3029 3028 3026 3023 3022 3021 3020 3018 3016 3015 3013 3011 3009 3007 3006 3004 3001 2999 2996 2994 2993 2993 2993 2992 2991 2990 2989 2987 2986 2984 2983 2981 2979 2977 2975 2974 2972 2970 2968 2966 2964 2961 2958 2955 2953 2951 2949 2947 2945 2943 2941 2940 2937 2935 2933 2931 2929 2928 2926 2924 2922 2920 2918 2917 2916 2914 2913 2911 2910 2909
3073 3071 3070 3069 3068 3066 3065 3063 3062 3061 3060 3059 3057 3056 3055 3053 3052 3050 3049 3047 3046 3044 3043 3041 3040 3039 3037 3036 3034 3033 3031 3030 3028 3026 3025 3024 3022 3020 3018 3016 3015 3013 3012 3010 3008 3006 3004 3002 3000 2998 2997 2994 2991 2990 2989 2989 2988 2987 2986 2986 2985 2983 2981 2980 2979 2977 2975 2973 2971 2969 2968 2966 2964 2962 2959 2956 2953 2950 2948 2946 2945 2943 2941 2939 2937 2935 2932 2930 2928 2926 2925 2923 2921 2920 2918 2916 2914 2913 2911 2910 2909 2907 2906